Regional Weather Roundup
Issued by NWS

Home | Current Version | Previous Version | Graphics & Text | Print | Product List | Glossary On
Versions: 1 2 3 4 5 6 7 8 9 10 11 12 13 14 15 16 17 18 19 20 21 22 23 24 25 26 27 28 29 30 31 32 33 34 35 36 37 38 39 40 41 42 43 44 45 46 47 48 49 50
000
ASUS43 KBIS 241010
RWRND

NORTH DAKOTA REGIONAL WEATHER ROUNDUP
NATIONAL WEATHER SERVICE BISMARCK ND
500 AM CDT FRI MAR 24 2017

NOTE: "FAIR" INDICATES FEW OR NO CLOUDS BELOW 12,000 FEET WITH NO
SIGNIFICANT WEATHER AND/OR OBSTRUCTIONS TO VISIBILITY.


NDZ001>003-009>011-017-241100-
NORTHWEST NORTH DAKOTA

CITY           SKY/WX    TMP DP  RH WIND       PRES   REMARKS
WILLISTON      FAIR      26  24  92 CALM      30.05R
MINOT          FAIR      26  23  88 CALM      30.04R
MINOT AFB      CLEAR     28  24  88 N5        30.04R
$$

NDZ018>021-031>035-040>046-241100-
SOUTHWEST NORTH DAKOTA

CITY           SKY/WX    TMP DP  RH WIND       PRES   REMARKS
BISMARCK       FAIR      30  28  92 NW3       30.01R FOG
DICKINSON      FOG       32  32 100 CALM      29.98R VSB 1/4
GARRISON         N/A     28  26  92 N6        30.02S
HETTINGER ARPT CLEAR     32  30  92 NW6       30.00R
$$

NDZ004>008-012>016-024-026-027-054-241100-
NORTHEAST NORTH DAKOTA

CITY           SKY/WX    TMP DP  RH WIND       PRES   REMARKS
GRAND FORKS    CLOUDY    32  31  96 N13       30.00R
GRND FRKS AFB  CLOUDY    31  30  96 N13       30.01R
DEVILS LAKE    FAIR      28  26  92 NE8       30.04R WCI  20
$$

NDZ022-023-025-028>030-036>039-047>053-241100-
SOUTHEAST NORTH DAKOTA

CITY           SKY/WX    TMP DP  RH WIND       PRES   REMARKS
FARGO          CLOUDY    34  34 100 N5        29.95R FOG
JAMESTOWN      FAIR      32  30  92 N9        29.97R
$$




USA.gov is the U.S. government's official web portal to all federal, state and local government web resources and services.